Location: Arbon
(43.0005°N, 0.7472°E)
Time: 11:52:32
(UTC+00:00)

Cosmos 1656 - Pass Details

Date: 22 April 2026
Orbit: 797 x 847 km, 71.1° (Epoch: 21 May)

Event Time Altitude Azimuth Distance (km) Brightness Sun altitude
Rises 22:37:49 0° 335° (NNW) 3,323 7.9 -31.8°
Reaches altitude 10° 22:40:13 10° 337° (NNW) 2,393 6.9 -31.9°
Enters shadow 22:44:18 52° 343° (NNW) 1,006 4.3 -32.2°
